• MPC Preparation (Info)

  • MPEC 2005-J22 : 2005 JM3

    The following Minor Planet Electronic Circular may be linked-to from your own Web pages, but must not otherwise be redistributed electronically.

    A form allowing access to any MPEC is at the bottom of this page.


    Read MPEC 2005-J21 Read MPEC 2005-J23


    M.P.E.C. 2005-J22                                Issued 2005 May 6, 10:52 UT
    
         The Minor Planet Electronic Circulars contain information on unusual
             minor planets and routine data on comets.  They are published
       on behalf of Commission 20 of the International Astronomical Union by the
              Minor Planet Center, Smithsonian Astrophysical Observatory,
                              Cambridge, MA 02138, U.S.A.
    
                      Supported in part by the Brinson Foundation
                 Prepared using the Tamkin Foundation Computer Network
    
                                  MPC@CFA.HARVARD.EDU
              URL http://cfa-www.harvard.edu/iau/mpc.html  ISSN 1523-6714
    
                                       2005 JM3
    
    Observations:
         K05J03M* C2005 05 03.30871 14 37 32.37 +10 56 06.9          19.0 R EJ022703
         K05J03M  C2005 05 03.31745 14 37 31.77 +10 55 48.1          19.4 R EJ022703
         K05J03M  C2005 05 03.32621 14 37 31.18 +10 55 30.2          19.1 R EJ022703
         K05J03M  C2005 05 03.33490 14 37 30.56 +10 55 12.3          19.2 R EJ022703
         K05J03M  C2005 05 03.34985 14 37 29.54 +10 54 42.0          19.3 R EJ022703
         K05J03M  C2005 05 03.35072 14 37 29.49 +10 54 40.7          19.4 R EJ022703
         K05J03M  C2005 05 03.35159 14 37 29.45 +10 54 37.6          19.3 R EJ022703
         K05J03M  C2005 05 03.35247 14 37 29.33 +10 54 35.1          19.2 R EJ022703
         K05J03M  C2005 05 04.13294 14 36 42.12 +10 27 23.8          20.0 R EJ022932
         K05J03M  C2005 05 04.15646 14 36 40.50 +10 26 33.7          19.4 R EJ022932
         K05J03M  C2005 05 04.17179 14 36 39.81 +10 26 02.9          19.5 V EJ022H36
         K05J03M  C2005 05 04.17468 14 36 39.25 +10 25 55.4          19.4 R EJ022932
         K05J03M  C2005 05 04.18610 14 36 38.95 +10 25 31.3          19.8 V EJ022H36
         K05J03M 5C2005 05 04.19028 14 36 39.07 +10 25 24.0          19.5 R EJ022673
         K05J03M 5C2005 05 04.19502 14 36 38.72 +10 25 14.1                 EJ022673
         K05J03M 5C2005 05 04.20069 14 36 38.36 +10 25 02.2                 EJ022673
         K05J03M 5C2005 05 04.20926 14 36 37.73 +10 24 42.4                 EJ022673
         K05J03M  C2005 05 04.29433 14 36 31.65 +10 21 43.5          20.1 R EJ022854
         K05J03M  C2005 05 04.29821 14 36 31.38 +10 21 36.1          19.6 R EJ022854
         K05J03M 4C2005 05 04.29821 14 36 32.40 +10 21 38.3          19.3 R EJ022F65
         K05J03M  C2005 05 04.30209 14 36 31.15 +10 21 27.2          19.6 R EJ022854
         K05J03M 4C2005 05 04.30501 14 36 31.94 +10 21 24.1          19.2 R EJ022F65
         K05J03M 4C2005 05 04.31081 14 36 31.54 +10 21 11.6          19.3 R EJ022F65
         K05J03M  C2005 05 04.32517 14 36 29.52 +10 20 36.8          19.7 V EJ022703
         K05J03M  C2005 05 04.33380 14 36 29.01 +10 20 19.4          20.4 V EJ022703
         K05J03M  C2005 05 04.34262 14 36 28.29 +10 20 00.5          19.6 V EJ022703
         K05J03M  C2005 05 04.35132 14 36 27.75 +10 19 41.3          19.7 V EJ022703
         K05J03M  C2005 05 04.37326 14 36 27.59 +10 19 18.6          19.1 R EJ022474
         K05J03M  C2005 05 04.37465 14 36 27.55 +10 19 16.2          19.2 R EJ022474
         K05J03M  C2005 05 04.37627 14 36 27.38 +10 19 12.6          19.2 R EJ022474
         K05J03M  C2005 05 04.37847 14 36 27.25 +10 19 07.9          19.3 R EJ022474
         K05J03M  C2005 05 05.26116 14 35 30.99 +09 46 32.1          19.4 V EJ022H36
         K05J03M  C2005 05 05.26604 14 35 30.59 +09 46 19.9          19.5 V EJ022H36
         K05J03M  C2005 05 05.48229 14 35 17.29 +09 38 47.1          19.1 R EJ022474
         K05J03M  C2005 05 05.48461 14 35 17.12 +09 38 41.9          19.1 R EJ022474
         K05J03M  C2005 05 05.48669 14 35 16.97 +09 38 37.3          19.3 R EJ022474
         K05J03M  C2005 05 05.48854 14 35 16.84 +09 38 33.2          19.2 R EJ022474
         K05J03M  C2005 05 06.01170 14 34 43.27 +09 18 18.3          19.5 V EJ022941
         K05J03M  C2005 05 06.01264 14 34 43.19 +09 18 15.9          19.5 V EJ022941
         K05J03M  C2005 05 06.01354 14 34 43.12 +09 18 13.8          19.6 V EJ022941
         K05J03M  C2005 05 06.01442 14 34 43.05 +09 18 11.6          18.6 V EJ022941
         K05J03M  C2005 05 06.01724 14 34 42.83 +09 18 04.4          19.7 V EJ022941
         K05J03M  C2005 05 06.18431 14 34 32.85 +09 11 37.9          20.4 R EJ022734
         K05J03M  C2005 05 06.19575 14 34 32.04 +09 11 13.2          20.6 R EJ022734
         K05J03M  C2005 05 06.20720 14 34 31.11 +09 10 46.9          19.7 R EJ022734
         K05J03M  C2005 05 06.21864 14 34 30.42 +09 10 21.6          20.5 R EJ022734
         K05J03M 3C2005 05 06.37190 14 34 20.81 +09 04 32.5                 EJ022F65
         K05J03M 3C2005 05 06.37282 14 34 20.75 +09 04 30.2          19.8 R EJ022F65
         K05J03M 3C2005 05 06.37376 14 34 20.68 +09 04 28.0          19.9 R EJ022F65
    
    Observer details:
    474 Mount John Observatory, Lake Tekapo.  Observer A. C. Gilmore.  Measurers
        P. M. Kilmartin, A. C. Gilmore.  1.0-m f/7.7 reflector + CCD.
    673 Table Mountain Observatory, Wrightwood.  Observer J. Young.  0.6-m
        reflector + CCD.
    703 Catalina Sky Survey.  Observers R. Hill, E. J. Christensen.  Measurers
        E. C. Beshore, C. M. Casey, E. J. Christensen, G. J. Garradd, R. E. Hill,
        S. M. Larson, R. H. McNaught.  0.68-m Schmidt + CCD.
    734 Farpoint Observatory.  Observer D. Tibbets.
    854 Sabino Canyon Observatory, Tucson.  Observer J. E. McGaha.  0.36-m f/10.0
        Schmidt-Cassegrain + CCD.
    932 John J. McCarthy Obs., New Milford.  Observer M. Robson.  0.4-m f/6.5
        Schmidt-Cassegrain + CCD.
    941 Observatorio Pla D'Arguines.  Observer R. Ferrando.  0.36-m f/6.3
        Schmidt-Cassegrain + CCD.
    F65 Haleakala-Faulkes Telescope North.  Observers J. Bedient, P. D. Gray,
        H. S. A. Dalton, A. D. Taylor.  Measurer A. D. Taylor.  2.0-m
        Ritchey-Chretien + CCD.
    H36 Sandlot Observatory, Scranton.  Observer G. Hug.  0.3-m Schmidt-Cassegrain
        + CCD.
    
    Orbital elements:
    2005 JM3
    Epoch 2005 Apr. 20.0 TT = JDT 2453480.5                 MPC
    M 351.51401              (2000.0)            P               Q
    n   0.15970779     Peri.  190.13585     -0.33352095     +0.89558365
    a   3.3644854      Node    60.92704     -0.83965492     -0.14018325
    e   0.6109065      Incl.   19.68720     -0.42865300     -0.42223048
    P   6.17           H   20.1           G   0.15
    From 46 observations 2005 May 3-6.
    
    Ephemeris:
    2005 JM3                 a,e,i = 3.36, 0.61, 20                  q = 1.3091
    Date    TT    R. A. (2000) Decl.     Delta      r     Elong.  Phase     V
    2005 04 30    14 40.80   +12 41.1    0.429    1.402   152.4    19.4    20.0
    2005 05 10    14 30.42   +06 34.0    0.383    1.365   154.2    18.8    19.7
    2005 05 20    14 19.92   -01 59.0    0.356    1.337   152.1    20.7    19.5
    2005 05 30    14 12.04   -12 13.9    0.349    1.318   146.3    25.2    19.6
    2005 06 09    14 09.14   -22 46.9    0.362    1.310   138.8    30.7    19.8
    2005 06 19    14 13.09   -32 21.0    0.394    1.312   131.7    35.3    20.1
    2005 06 29    14 24.79   -40 16.6    0.440    1.324   125.9    38.4    20.5
    2005 07 09    14 44.57   -46 26.3    0.498    1.346   121.6    40.0    20.8
    2005 07 19    15 12.24   -50 57.4    0.566    1.378   118.4    40.5    21.2
    2005 07 29    15 46.62   -53 58.2    0.641    1.418   115.9    40.1    21.5
    2005 08 08    16 25.69   -55 36.5    0.725    1.465   113.7    39.3    21.8
    
    Timothy B. Spahr             (C) Copyright 2005 MPC           M.P.E.C. 2005-J22
    

    Read MPEC 2005-J21 Read MPEC 2005-J23


    MPEC number:

    Enter an MPEC number in one of the following forms:

    • 1997-B01 (the full form)
    • J97B01 (the packed version of the full form)
    • B01 (the abbreviated form)